Station Historical Data
Daily Summary for March 22, 2012 Units:  Metric    English   Both
« Previous Day
Next Day »
Daily Weekly Monthly Yearly Custom
  High: Low: Average:
Temperature: 21.4 °C 16.4 °C 18.9 °C
Dew Point: 17.3 °C 14.7 °C 15.9 °C
Humidity: 93% 67% 84%
Wind Speed: 33.8km/h 3.2km/h 12.9km/h
Wind Gust: 41.8km/h - -
Wind- - SE
Pressure: 1018.5 hPa 1013.4 hPa -
Precipitation: 6.1 mm    
Historical Graphs
 
 
Tabular Data for March 22, 2012
Time Temperature Dew Point Pressure Wind Wind Speed Wind Gust Humidity Rainfall Rate (Hourly) Conditions
00:00 21.2 °C 14.8 °C 1016.8 hPa ESE 12.9 km/h 17.7 km/h 67% 0 mm
00:01 21.2 °C 14.8 °C 1016.8 hPa SE 9.7 km/h 17.7 km/h 67% 0 mm
00:06 21.3 °C 14.9 °C 1016.8 hPa ESE 19.3 km/h 19.3 km/h 67% 0 mm
00:11 21.3 °C 14.9 °C 1016.8 hPa SE 19.3 km/h 19.3 km/h 67% 0 mm
00:16 21.3 °C 14.9 °C 1016.8 hPa SE 12.9 km/h 20.9 km/h 67% 0 mm
00:21 21.4 °C 15 °C 1016.8 hPa SE 16.1 km/h 19.3 km/h 67% 0 mm
00:26 21.3 °C 14.9 °C 1016.8 hPa ESE 19.3 km/h 19.3 km/h 67% 0 mm
00:31 21.3 °C 14.9 °C 1016.8 hPa SE 16.1 km/h 20.9 km/h 67% 0 mm
00:36 21.2 °C 14.8 °C 1016.8 hPa SE 11.3 km/h 17.7 km/h 67% 0 mm
00:41 21.2 °C 14.8 °C 1016.8 hPa ESE 14.5 km/h 22.5 km/h 67% 0 mm
00:46 21.2 °C 14.8 °C 1016.8 hPa ESE 16.1 km/h 20.9 km/h 67% 0 mm
00:51 21.2 °C 15.1 °C 1016.8 hPa SE 11.3 km/h 19.3 km/h 68% 0 mm
00:56 21.2 °C 15.1 °C 1016.8 hPa ESE 14.5 km/h 19.3 km/h 68% 0 mm
01:01 21.1 °C 14.7 °C 1016.8 hPa ESE 19.3 km/h 25.7 km/h 67% 0 mm
01:06 21.2 °C 14.8 °C 1016.8 hPa SE 20.9 km/h 24.1 km/h 67% 0 mm
01:11 21.2 °C 14.8 °C 1016.8 hPa ESE 17.7 km/h 22.5 km/h 67% 0 mm
01:16 21.2 °C 15.1 °C 1016.8 hPa SE 14.5 km/h 24.1 km/h 68% 0 mm
01:21 21.1 °C 15 °C 1016.8 hPa ESE 14.5 km/h 17.7 km/h 68% 0 mm
01:26 21.1 °C 14.9 °C 1016.8 hPa SE 8 km/h 20.9 km/h 68% 0 mm
01:31 21 °C 14.9 °C 1016.8 hPa ESE 14.5 km/h 22.5 km/h 68% 0 mm
01:36 21.1 °C 14.9 °C 1016.8 hPa ESE 12.9 km/h 19.3 km/h 68% 0 mm
01:41 21.1 °C 15 °C 1016.8 hPa SE 11.3 km/h 25.7 km/h 68% 0 mm
01:46 21.1 °C 14.9 °C 1016.8 hPa SE 14.5 km/h 22.5 km/h 68% 0 mm
01:51 21 °C 14.9 °C 1016.8 hPa ESE 14.5 km/h 19.3 km/h 68% 0 mm
01:56 21.1 °C 14.9 °C 1016.8 hPa ESE 14.5 km/h 24.1 km/h 68% 0 mm
02:01 21 °C 14.9 °C 1016.5 hPa ESE 19.3 km/h 24.1 km/h 68% 0 mm
02:06 21 °C 14.9 °C 1016.5 hPa ESE 19.3 km/h 19.3 km/h 68% 0 mm
02:12 21.1 °C 14.9 °C 1016.8 hPa ESE 16.1 km/h 30.6 km/h 68% 0 mm
02:17 21.1 °C 14.9 °C 1016.5 hPa ESE 16.1 km/h 19.3 km/h 68% 0 mm
02:22 21.1 °C 15 °C 1016.8 hPa SE 17.7 km/h 29 km/h 68% 0 mm
02:27 21.1 °C 15.2 °C 1017.2 hPa SW 11.3 km/h 22.5 km/h 69% 0 mm
02:32 20.7 °C 15.1 °C 1016.8 hPa SW 8 km/h 8 km/h 70% 0 mm
02:37 20.5 °C 15.1 °C 1016.8 hPa South 4.8 km/h 12.9 km/h 71% 0 mm
02:42 20.4 °C 15 °C 1016.5 hPa SSW 4.8 km/h 9.7 km/h 71% 0 mm
02:47 20.2 °C 15 °C 1016.1 hPa SE 4.8 km/h 8 km/h 72% 0 mm
02:52 20.1 °C 15.1 °C 1016.1 hPa SE 11.3 km/h 11.3 km/h 73% 0 mm
02:57 20.1 °C 14.9 °C 1015.8 hPa ESE 6.4 km/h 9.7 km/h 72% 0 mm
03:02 20 °C 15 °C 1015.8 hPa SE 11.3 km/h 16.1 km/h 73% 0 mm
03:07 20.1 °C 15.1 °C 1015.5 hPa ESE 8 km/h 17.7 km/h 73% 0 mm
03:12 19.9 °C 14.9 °C 1015.5 hPa SE 9.7 km/h 14.5 km/h 73% 0 mm
03:17 19.9 °C 14.9 °C 1015.1 hPa SE 6.4 km/h 12.9 km/h 73% 0 mm
03:22 19.9 °C 14.9 °C 1014.8 hPa SE 11.3 km/h 16.1 km/h 73% 0 mm
03:27 20 °C 15 °C 1014.8 hPa SE 16.1 km/h 22.5 km/h 73% 0 mm
03:32 20.1 °C 15.1 °C 1014.4 hPa ESE 17.7 km/h 25.7 km/h 73% 0 mm
03:37 20.2 °C 15 °C 1014.1 hPa SE 12.9 km/h 22.5 km/h 72% 0 mm
03:42 20.2 °C 15 °C 1013.8 hPa SE 12.9 km/h 22.5 km/h 72% 0 mm
03:47 20.3 °C 15.1 °C 1013.8 hPa SE 20.9 km/h 24.1 km/h 72% 0 mm
03:53 20.3 °C 15.1 °C 1013.8 hPa ESE 20.9 km/h 30.6 km/h 72% 0 mm
03:58 20.3 °C 15.1 °C 1013.8 hPa ESE 16.1 km/h 20.9 km/h 72% 0 mm
04:03 20.3 °C 15.1 °C 1013.4 hPa ESE 16.1 km/h 22.5 km/h 72% 0 mm
04:08 20.3 °C 15.1 °C 1013.4 hPa SE 19.3 km/h 22.5 km/h 72% 0 mm
04:12 20.3 °C 15.1 °C 1013.8 hPa ESE 16.1 km/h 27.4 km/h 72% 0 mm
04:18 20.4 °C 15.2 °C 1013.8 hPa ESE 12.9 km/h 27.4 km/h 72% 0 mm
04:23 20.4 °C 15.2 °C 1013.8 hPa ESE 17.7 km/h 27.4 km/h 72% 0 mm
04:28 20.4 °C 15.2 °C 1014.1 hPa ESE 14.5 km/h 22.5 km/h 72% 0 mm
04:33 20.4 °C 15.2 °C 1014.1 hPa ESE 20.9 km/h 25.7 km/h 72% 0 mm
04:38 20.4 °C 15.2 °C 1014.1 hPa SE 11.3 km/h 25.7 km/h 72% 0 mm
04:43 20.4 °C 15.2 °C 1014.4 hPa SE 24.1 km/h 24.1 km/h 72% 0 mm
04:48 20.3 °C 15.1 °C 1014.4 hPa ESE 14.5 km/h 19.3 km/h 72% 0 mm
04:53 20.3 °C 15.1 °C 1014.1 hPa SE 9.7 km/h 22.5 km/h 72% 0 mm
04:58 20.2 °C 15.2 °C 1014.4 hPa ESE 16.1 km/h 20.9 km/h 73% 0 mm
05:03 20.2 °C 15.2 °C 1014.4 hPa ESE 17.7 km/h 24.1 km/h 73% 0 mm
05:08 20.2 °C 15.2 °C 1014.4 hPa SE 9.7 km/h 22.5 km/h 73% 0 mm
05:13 20.2 °C 15.2 °C 1014.4 hPa SE 19.3 km/h 20.9 km/h 73% 0 mm
05:18 20.3 °C 15.1 °C 1014.8 hPa SE 14.5 km/h 17.7 km/h 72% 0 mm
05:23 20.2 °C 15.2 °C 1014.8 hPa SE 9.7 km/h 19.3 km/h 73% 0 mm
05:28 20.2 °C 15 °C 1014.8 hPa ESE 16.1 km/h 24.1 km/h 72% 0 mm
05:33 20.2 °C 15.2 °C 1014.8 hPa ESE 20.9 km/h 22.5 km/h 73% 0 mm
05:38 20.2 °C 15.2 °C 1014.8 hPa SE 9.7 km/h 20.9 km/h 73% 0 mm
05:43 20.2 °C 15.2 °C 1014.8 hPa SE 16.1 km/h 17.7 km/h 73% 0 mm
05:48 20.2 °C 15.2 °C 1014.8 hPa SE 8 km/h 16.1 km/h 73% 0 mm
05:53 20.1 °C 15.1 °C 1014.8 hPa ESE 17.7 km/h 19.3 km/h 73% 0 mm
05:58 20.1 °C 15.1 °C 1014.8 hPa SE 9.7 km/h 17.7 km/h 73% 0 mm
06:03 20 °C 15.2 °C 1014.8 hPa SE 17.7 km/h 19.3 km/h 74% 0 mm
06:08 20 °C 15.2 °C 1014.8 hPa ESE 12.9 km/h 20.9 km/h 74% 0 mm
06:13 19.9 °C 15.3 °C 1014.8 hPa SE 16.1 km/h 20.9 km/h 75% 0 mm
06:18 19.7 °C 15.2 °C 1014.8 hPa ESE 11.3 km/h 19.3 km/h 75% 0 mm
06:23 19.6 °C 15.3 °C 1014.8 hPa ESE 12.9 km/h 20.9 km/h 76% 0 mm
06:28 19.6 °C 15.2 °C 1014.8 hPa ESE 16.1 km/h 16.1 km/h 76% 0 mm
06:33 19.6 °C 15.2 °C 1014.8 hPa SE 16.1 km/h 16.1 km/h 76% 0 mm
06:38 19.6 °C 15.2 °C 1014.8 hPa SE 11.3 km/h 16.1 km/h 76% 0 mm
06:43 19.5 °C 15.2 °C 1015.1 hPa SE 12.9 km/h 17.7 km/h 76% 0 mm
06:48 19.5 °C 15.2 °C 1015.1 hPa SE 8 km/h 14.5 km/h 76% 0 mm
06:53 19.5 °C 15.2 °C 1015.1 hPa ESE 12.9 km/h 16.1 km/h 76% 0 mm
06:58 19.5 °C 15.2 °C 1015.1 hPa SE 12.9 km/h 19.3 km/h 76% 0 mm
07:03 19.4 °C 15.3 °C 1015.1 hPa ESE 12.9 km/h 16.1 km/h 77% 0 mm
07:08 19.4 °C 15.3 °C 1015.1 hPa SE 12.9 km/h 16.1 km/h 77% 0 mm
07:13 19.4 °C 15.3 °C 1015.1 hPa SE 12.9 km/h 20.9 km/h 77% 0 mm
07:18 19.4 °C 15.3 °C 1015.1 hPa SE 17.7 km/h 17.7 km/h 77% 0 mm
07:23 19.4 °C 15.4 °C 1015.5 hPa SE 6.4 km/h 16.1 km/h 78% 0 mm
07:28 19.3 °C 15.4 °C 1015.5 hPa SE 11.3 km/h 17.7 km/h 78% 0 mm
07:33 19.3 °C 15.3 °C 1015.8 hPa SE 9.7 km/h 16.1 km/h 78% 0 mm
07:38 19.3 °C 15.3 °C 1015.8 hPa SSE 14.5 km/h 17.7 km/h 78% 0 mm
07:43 19.3 °C 15.3 °C 1015.8 hPa ESE 9.7 km/h 16.1 km/h 78% 0 mm
07:48 19.2 °C 15.5 °C 1015.8 hPa SE 9.7 km/h 19.3 km/h 79% 0 mm
07:53 19.1 °C 15.6 °C 1016.1 hPa SE 12.9 km/h 12.9 km/h 80% 0 mm
07:58 19.1 °C 15.6 °C 1016.1 hPa SE 9.7 km/h 11.3 km/h 80% 0 mm
08:03 18.9 °C 15.4 °C 1016.1 hPa ESE 11.3 km/h 11.3 km/h 80% 0 mm
08:08 18.9 °C 15.6 °C 1016.1 hPa ESE 9.7 km/h 12.9 km/h 81% 0 mm
08:13 18.9 °C 15.6 °C 1016.1 hPa SE 8 km/h 11.3 km/h 81% 0 mm
08:19 18.9 °C 15.6 °C 1016.1 hPa SE 9.7 km/h 14.5 km/h 81% 0 mm
08:24 18.9 °C 15.6 °C 1016.1 hPa ESE 11.3 km/h 17.7 km/h 81% 0 mm
08:29 19 °C 15.7 °C 1016.5 hPa SE 9.7 km/h 16.1 km/h 81% 0 mm
08:34 19.1 °C 15.7 °C 1016.1 hPa SE 11.3 km/h 16.1 km/h 81% 0 mm
08:39 19.1 °C 15.7 °C 1016.1 hPa ESE 17.7 km/h 17.7 km/h 81% 0 mm
08:44 19.1 °C 15.7 °C 1016.5 hPa SE 20.9 km/h 20.9 km/h 81% 0 mm
08:49 19.1 °C 15.7 °C 1016.5 hPa SE 11.3 km/h 20.9 km/h 81% 0 mm
08:54 19 °C 15.7 °C 1016.5 hPa ESE 12.9 km/h 17.7 km/h 81% 0 mm
08:59 18.9 °C 15.8 °C 1016.5 hPa ESE 11.3 km/h 20.9 km/h 82% 0 mm
09:04 18.9 °C 15.7 °C 1016.5 hPa SE 12.9 km/h 19.3 km/h 82% 0 mm
09:09 18.9 °C 15.7 °C 1016.5 hPa SE 9.7 km/h 14.5 km/h 82% 0 mm
09:14 18.8 °C 15.9 °C 1016.5 hPa ESE 6.4 km/h 17.7 km/h 83% 0 mm
09:19 18.8 °C 15.8 °C 1016.5 hPa ESE 9.7 km/h 14.5 km/h 83% 0 mm
09:24 18.7 °C 15.9 °C 1016.5 hPa ESE 11.3 km/h 12.9 km/h 84% 0 mm
09:29 18.7 °C 15.9 °C 1016.8 hPa ESE 11.3 km/h 16.1 km/h 84% 0 mm
09:34 18.6 °C 16.1 °C 1016.8 hPa ESE 12.9 km/h 14.5 km/h 85% 0 mm
09:39 18.6 °C 16 °C 1016.8 hPa ESE 9.7 km/h 14.5 km/h 85% 0 mm
09:44 18.6 °C 16.2 °C 1016.8 hPa SE 12.9 km/h 22.5 km/h 86% 0 mm
09:49 18.6 °C 16.2 °C 1016.8 hPa ESE 9.7 km/h 17.7 km/h 86% 0 mm
09:54 18.6 °C 16.2 °C 1016.8 hPa ESE 17.7 km/h 24.1 km/h 86% 0 mm
09:59 18.7 °C 16.3 °C 1016.8 hPa SE 8 km/h 16.1 km/h 86% 0 mm
10:04 18.8 °C 16.4 °C 1016.8 hPa ESE 9.7 km/h 19.3 km/h 86% 0 mm
10:09 18.8 °C 16.4 °C 1016.8 hPa ESE 17.7 km/h 17.7 km/h 86% 0 mm
10:14 18.8 °C 16.4 °C 1017.2 hPa SE 17.7 km/h 17.7 km/h 86% 0 mm
10:19 18.8 °C 16.4 °C 1016.8 hPa ESE 11.3 km/h 25.7 km/h 86% 0 mm
10:24 18.8 °C 16.4 °C 1016.8 hPa East 12.9 km/h 22.5 km/h 86% 0 mm
10:29 18.9 °C 16.5 °C 1016.8 hPa ESE 20.9 km/h 22.5 km/h 86% 0 mm
10:34 19 °C 16.6 °C 1016.8 hPa East 19.3 km/h 22.5 km/h 86% 0 mm
10:39 19.1 °C 16.5 °C 1016.8 hPa ESE 14.5 km/h 27.4 km/h 85% 0 mm
10:40 19.1 °C 16.5 °C 1016.8 hPa ESE 19.3 km/h 27.4 km/h 85% 0 mm
10:45 19.1 °C 16.6 °C 1016.8 hPa SE 17.7 km/h 22.5 km/h 85% 0 mm
10:50 19.2 °C 16.7 °C 1016.8 hPa ESE 14.5 km/h 20.9 km/h 85% 0 mm
10:55 19.2 °C 16.7 °C 1016.8 hPa ESE 24.1 km/h 24.1 km/h 85% 0 mm
11:00 19.2 °C 16.4 °C 1017.2 hPa ESE 16.1 km/h 22.5 km/h 84% 0 mm
11:05 19.2 °C 16.4 °C 1017.2 hPa SE 32.2 km/h 32.2 km/h 84% 0 mm
11:10 19.2 °C 16.4 °C 1017.2 hPa ESE 14.5 km/h 20.9 km/h 84% 0 mm
11:15 19.3 °C 16.5 °C 1017.2 hPa ESE 12.9 km/h 19.3 km/h 84% 0 mm
11:20 19.3 °C 16.5 °C 1017.5 hPa SSE 20.9 km/h 27.4 km/h 84% 0 mm
11:25 19.3 °C 16.7 °C 1017.5 hPa SE 17.7 km/h 25.7 km/h 85% 0 mm
11:30 19.3 °C 16.7 °C 1017.8 hPa SE 20.9 km/h 24.1 km/h 85% 0 mm
11:35 19.3 °C 16.7 °C 1017.8 hPa SE 12.9 km/h 24.1 km/h 85% 0 mm
11:36 19.3 °C 16.7 °C 1017.8 hPa ESE 12.9 km/h 24.1 km/h 85% 0 mm
11:41 19.2 °C 16.7 °C 1017.8 hPa SE 12.9 km/h 30.6 km/h 85% 0 mm
11:46 19.1 °C 16.7 °C 1017.8 hPa SE 20.9 km/h 20.9 km/h 86% 0 mm
11:51 19 °C 16.8 °C 1017.8 hPa SSE 12.9 km/h 20.9 km/h 87% 0 mm
11:56 18.9 °C 16.7 °C 1018.2 hPa SSE 9.7 km/h 14.5 km/h 87% 0 mm
12:01 18.9 °C 16.8 °C 1018.2 hPa SE 8 km/h 19.3 km/h 88% 0 mm
12:06 18.9 °C 16.8 °C 1018.2 hPa SSE 6.4 km/h 19.3 km/h 88% 0 mm
12:11 18.9 °C 16.8 °C 1018.2 hPa East 14.5 km/h 17.7 km/h 88% 0 mm
12:16 18.9 °C 16.9 °C 1018.2 hPa ESE 6.4 km/h 16.1 km/h 88% 0 mm
12:21 18.9 °C 16.9 °C 1018.5 hPa SE 11.3 km/h 14.5 km/h 88% 0 mm
12:26 18.9 °C 17.1 °C 1018.5 hPa ESE 16.1 km/h 16.1 km/h 89% 0 mm
12:31 18.9 °C 17.1 °C 1018.5 hPa ESE 8 km/h 14.5 km/h 89% 0 mm
12:36 18.8 °C 17 °C 1018.5 hPa SSE 9.7 km/h 11.3 km/h 89% 0 mm
12:41 18.8 °C 17.1 °C 1018.5 hPa SE 6.4 km/h 12.9 km/h 90% 1.02 mm
12:42 18.7 °C 17.1 °C 1018.5 hPa ESE 6.4 km/h 12.9 km/h 90% 1.02 mm
12:47 18.7 °C 17.1 °C 1018.5 hPa ESE 6.4 km/h 9.7 km/h 90% 1.02 mm
12:52 18.7 °C 17.2 °C 1018.5 hPa SE 8 km/h 9.7 km/h 91% 1.78 mm
12:57 18.6 °C 17.1 °C 1018.5 hPa SE 4.8 km/h 8 km/h 91% 1.78 mm
13:03 18.6 °C 17.1 °C 1018.5 hPa ESE 6.4 km/h 9.7 km/h 91% 1.78 mm
13:08 18.6 °C 17.1 °C 1018.5 hPa ESE 8 km/h 12.9 km/h 91% 1.78 mm
13:13 18.6 °C 17.3 °C 1018.5 hPa SE 9.7 km/h 14.5 km/h 92% 3.3 mm
13:18 18.6 °C 17.2 °C 1018.5 hPa ESE 8 km/h 12.9 km/h 92% 2.54 mm
13:23 18.5 °C 17.2 °C 1018.5 hPa ESE 11.3 km/h 16.1 km/h 92% 4.57 mm
13:28 18.4 °C 17.1 °C 1018.2 hPa ESE 8 km/h 16.1 km/h 92% 3.3 mm
13:33 18.4 °C 17.1 °C 1018.2 hPa SE 8 km/h 17.7 km/h 92% 2.03 mm
13:38 18.4 °C 16.9 °C 1018.2 hPa SE 11.3 km/h 22.5 km/h 91% 2.03 mm
13:43 18.4 °C 16.9 °C 1018.2 hPa ESE 11.3 km/h 20.9 km/h 91% 1.78 mm
13:48 18.4 °C 17.1 °C 1018.2 hPa SE 19.3 km/h 19.3 km/h 92% 2.54 mm
13:53 18.4 °C 17.1 °C 1018.2 hPa SE 11.3 km/h 16.1 km/h 92% 2.79 mm
13:58 18.4 °C 17.1 °C 1018.2 hPa SE 8 km/h 14.5 km/h 92% 3.3 mm
14:03 18.4 °C 17.3 °C 1018.2 hPa SE 16.1 km/h 19.3 km/h 93% 2.54 mm
14:08 18.5 °C 17.2 °C 1018.2 hPa South 12.9 km/h 16.1 km/h 92% 2.54 mm
14:13 18.5 °C 17.3 °C 1018.5 hPa ESE 24.1 km/h 24.1 km/h 93% 2.79 mm
14:18 18.4 °C 17.1 °C 1018.2 hPa SE 12.9 km/h 22.5 km/h 92% 5.84 mm
14:23 18.3 °C 17 °C 1018.2 hPa SE 19.3 km/h 24.1 km/h 92% 6.6 mm
14:28 18.2 °C 16.9 °C 1018.2 hPa ESE 24.1 km/h 35.4 km/h 92% 2.29 mm
14:33 18.3 °C 16.9 °C 1017.8 hPa SE 16.1 km/h 24.1 km/h 92% 2.29 mm
14:38 18.3 °C 16.8 °C 1017.8 hPa ESE 24.1 km/h 25.7 km/h 91% 1.52 mm
14:43 18.3 °C 16.8 °C 1017.8 hPa SE 22.5 km/h 32.2 km/h 91% 1.02 mm
14:48 18.3 °C 16.8 °C 1017.8 hPa SE 14.5 km/h 25.7 km/h 91% 0 mm
14:53 18.2 °C 16.7 °C 1017.8 hPa SE 20.9 km/h 24.1 km/h 91% 0 mm
14:58 18.1 °C 16.4 °C 1017.5 hPa SE 17.7 km/h 29 km/h 90% 0 mm
15:03 17.9 °C 16.4 °C 1017.2 hPa ESE 20.9 km/h 25.7 km/h 91% 0 mm
15:08 17.9 °C 16.4 °C 1016.8 hPa ESE 22.5 km/h 30.6 km/h 91% 0 mm
15:13 17.8 °C 16.3 °C 1016.8 hPa SE 20.9 km/h 25.7 km/h 91% 0 mm
15:18 17.7 °C 16.2 °C 1016.5 hPa ESE 20.9 km/h 29 km/h 91% 0 mm
15:23 17.7 °C 16.2 °C 1016.1 hPa ESE 20.9 km/h 30.6 km/h 91% 0 mm
15:29 17.6 °C 16.1 °C 1016.5 hPa ESE 17.7 km/h 30.6 km/h 91% 0 mm
15:34 17.6 °C 16.2 °C 1016.5 hPa ESE 14.5 km/h 30.6 km/h 92% 0 mm
15:39 17.5 °C 16.2 °C 1016.8 hPa SSE 17.7 km/h 27.4 km/h 92% 0 mm
15:44 17.6 °C 16.2 °C 1017.2 hPa SE 9.7 km/h 24.1 km/h 92% 0 mm
15:49 17.6 °C 16.3 °C 1016.5 hPa SE 29 km/h 29 km/h 92% 0 mm
15:54 17.7 °C 16.4 °C 1016.1 hPa East 27.4 km/h 32.2 km/h 92% 0 mm
15:59 17.7 °C 16.3 °C 1016.1 hPa ESE 16.1 km/h 30.6 km/h 92% 0 mm
16:04 17.7 °C 16.3 °C 1016.1 hPa ESE 24.1 km/h 29 km/h 92% 0 mm
16:09 17.6 °C 16.4 °C 1016.1 hPa ESE 24.1 km/h 27.4 km/h 93% 0 mm
16:14 17.6 °C 16.4 °C 1015.8 hPa ESE 20.9 km/h 29 km/h 93% 0 mm
16:19 17.6 °C 16.4 °C 1015.5 hPa ESE 22.5 km/h 29 km/h 93% 0 mm
16:24 17.6 °C 16.4 °C 1015.5 hPa ESE 33.8 km/h 33.8 km/h 93% 0 mm
16:29 17.6 °C 16.4 °C 1014.4 hPa East 29 km/h 29 km/h 93% 0 mm
16:34 17.5 °C 16.3 °C 1013.8 hPa ESE 14.5 km/h 41.8 km/h 93% 0 mm
16:40 17.5 °C 16.3 °C 1014.4 hPa SE 14.5 km/h 30.6 km/h 93% 0 mm
16:45 17.5 °C 16.2 °C 1014.8 hPa SSE 11.3 km/h 17.7 km/h 92% 0 mm
16:50 17.6 °C 16.2 °C 1015.1 hPa SE 4.8 km/h 11.3 km/h 92% 0 mm
16:55 17.7 °C 16.3 °C 1015.1 hPa South 3.2 km/h 12.9 km/h 92% 0 mm
17:00 17.8 °C 16.4 °C 1015.5 hPa SW 6.4 km/h 20.9 km/h 92% 0 mm
17:05 17.8 °C 16.3 °C 1015.5 hPa SSE 8 km/h 12.9 km/h 91% 0 mm
17:10 17.9 °C 16.4 °C 1015.5 hPa SSE 14.5 km/h 14.5 km/h 91% 0 mm
17:15 17.9 °C 16.4 °C 1015.1 hPa SSE 6.4 km/h 11.3 km/h 91% 0 mm
17:20 18.1 °C 16.6 °C 1015.1 hPa SSW 6.4 km/h 14.5 km/h 91% 0 mm
17:25 18.1 °C 16.6 °C 1015.5 hPa South 8 km/h 11.3 km/h 91% 0 mm
17:30 18.2 °C 16.5 °C 1015.8 hPa SSE 12.9 km/h 14.5 km/h 90% 0 mm
17:35 18.2 °C 16.6 °C 1015.8 hPa SSE 8 km/h 12.9 km/h 90% 0 mm
17:36 18.3 °C 16.6 °C 1015.8 hPa South 8 km/h 12.9 km/h 90% 0 mm
17:41 18.3 °C 16.6 °C 1015.8 hPa SSE 14.5 km/h 14.5 km/h 90% 0 mm
17:46 18.3 °C 16.7 °C 1015.5 hPa SE 16.1 km/h 17.7 km/h 90% 0 mm
17:51 18.4 °C 16.7 °C 1015.1 hPa SE 12.9 km/h 16.1 km/h 90% 0 mm
17:56 18.4 °C 16.8 °C 1015.1 hPa SE 11.3 km/h 16.1 km/h 90% 0 mm
18:01 18.5 °C 16.8 °C 1014.8 hPa ESE 11.3 km/h 16.1 km/h 90% 0 mm
18:06 18.5 °C 16.7 °C 1014.8 hPa SE 12.9 km/h 19.3 km/h 89% 0 mm
18:11 18.6 °C 16.7 °C 1015.1 hPa ESE 20.9 km/h 20.9 km/h 89% 0 mm
18:16 18.6 °C 16.6 °C 1015.1 hPa SSE 16.1 km/h 19.3 km/h 88% 0 mm
18:22 18.6 °C 16.6 °C 1015.1 hPa SSE 14.5 km/h 20.9 km/h 88% 0 mm
18:27 18.7 °C 16.8 °C 1015.1 hPa SE 17.7 km/h 22.5 km/h 89% 0 mm
18:32 18.7 °C 16.8 °C 1015.1 hPa ESE 20.9 km/h 29 km/h 89% 0 mm
18:37 18.7 °C 16.8 °C 1015.1 hPa SE 9.7 km/h 20.9 km/h 89% 0 mm
18:42 18.6 °C 16.8 °C 1015.1 hPa SSE 17.7 km/h 19.3 km/h 89% 0 mm
18:47 18.6 °C 16.8 °C 1015.1 hPa SE 12.9 km/h 20.9 km/h 89% 0 mm
18:52 18.6 °C 16.9 °C 1015.1 hPa SSE 9.7 km/h 19.3 km/h 90% 0 mm
18:57 18.6 °C 16.9 °C 1015.1 hPa ESE 11.3 km/h 19.3 km/h 90% 0 mm
19:02 18.6 °C 16.9 °C 1015.5 hPa ESE 17.7 km/h 24.1 km/h 90% 0 mm
19:07 18.6 °C 16.9 °C 1015.1 hPa SE 8 km/h 17.7 km/h 90% 0 mm
19:12 18.6 °C 16.9 °C 1015.1 hPa ESE 12.9 km/h 20.9 km/h 90% 0 mm
19:17 18.5 °C 17 °C 1015.5 hPa SE 9.7 km/h 19.3 km/h 91% 0 mm
19:22 18.4 °C 16.9 °C 1015.5 hPa SE 11.3 km/h 19.3 km/h 91% 0 mm
19:27 18.4 °C 16.9 °C 1015.5 hPa SE 9.7 km/h 12.9 km/h 91% 0 mm
19:32 18.4 °C 16.9 °C 1015.5 hPa SE 12.9 km/h 16.1 km/h 91% 0 mm
19:37 18.4 °C 16.9 °C 1015.5 hPa SE 8 km/h 19.3 km/h 91% 0 mm
19:42 18.3 °C 16.8 °C 1015.5 hPa ESE 8 km/h 16.1 km/h 91% 0 mm
19:47 18.3 °C 16.8 °C 1015.5 hPa SE 11.3 km/h 16.1 km/h 91% 0 mm
19:52 18.3 °C 16.8 °C 1015.5 hPa ESE 12.9 km/h 16.1 km/h 91% 0 mm
19:57 18.2 °C 16.7 °C 1015.5 hPa SE 8 km/h 11.3 km/h 91% 0 mm
20:02 18.2 °C 16.7 °C 1015.8 hPa SE 8 km/h 14.5 km/h 91% 0 mm
20:07 18.2 °C 16.7 °C 1015.5 hPa ESE 11.3 km/h 12.9 km/h 91% 0 mm
20:12 18.2 °C 16.7 °C 1015.8 hPa SE 8 km/h 11.3 km/h 91% 0 mm
20:18 18.1 °C 16.6 °C 1015.5 hPa SE 4.8 km/h 14.5 km/h 91% 0 mm
20:23 18 °C 16.5 °C 1015.5 hPa ESE 8 km/h 12.9 km/h 91% 0 mm
20:28 18 °C 16.5 °C 1015.5 hPa ESE 9.7 km/h 9.7 km/h 91% 0 mm
20:33 18 °C 16.5 °C 1015.5 hPa SE 8 km/h 11.3 km/h 91% 0 mm
20:38 17.9 °C 16.4 °C 1015.5 hPa ESE 11.3 km/h 12.9 km/h 91% 0 mm
20:43 17.9 °C 16.4 °C 1015.5 hPa SE 6.4 km/h 11.3 km/h 91% 0 mm
20:48 17.8 °C 16.3 °C 1015.5 hPa ESE 6.4 km/h 11.3 km/h 91% 0 mm
20:53 17.8 °C 16.4 °C 1015.5 hPa SE 4.8 km/h 9.7 km/h 92% 0 mm
20:58 17.7 °C 16.4 °C 1015.5 hPa SE 8 km/h 9.7 km/h 92% 0 mm
21:03 17.6 °C 16.3 °C 1015.5 hPa ESE 4.8 km/h 6.4 km/h 92% 0 mm
21:08 17.6 °C 16.2 °C 1015.5 hPa SE 6.4 km/h 9.7 km/h 92% 0 mm
21:13 17.5 °C 16.2 °C 1015.5 hPa SE 6.4 km/h 9.7 km/h 92% 0 mm
21:18 17.4 °C 16.1 °C 1015.5 hPa ESE 6.4 km/h 12.9 km/h 92% 0 mm
21:23 17.4 °C 16.1 °C 1015.5 hPa SE 6.4 km/h 11.3 km/h 92% 0 mm
21:28 17.4 °C 16.1 °C 1015.5 hPa ESE 4.8 km/h 11.3 km/h 92% 0 mm
21:33 17.3 °C 16 °C 1015.8 hPa ESE 8 km/h 11.3 km/h 92% 0 mm
21:38 17.2 °C 15.9 °C 1015.5 hPa SE 4.8 km/h 11.3 km/h 92% 0 mm
21:43 17.2 °C 15.8 °C 1015.5 hPa ESE 9.7 km/h 12.9 km/h 92% 0 mm
21:48 17.1 °C 15.7 °C 1015.5 hPa ESE 11.3 km/h 12.9 km/h 92% 0 mm
21:53 17 °C 15.7 °C 1015.5 hPa ESE 9.7 km/h 14.5 km/h 92% 0 mm
21:58 16.9 °C 15.8 °C 1015.5 hPa SE 9.7 km/h 12.9 km/h 93% 0 mm
22:03 17 °C 15.7 °C 1015.5 hPa ESE 9.7 km/h 16.1 km/h 92% 0 mm
22:08 16.9 °C 15.7 °C 1015.5 hPa ESE 9.7 km/h 14.5 km/h 92% 0 mm
22:13 16.9 °C 15.6 °C 1015.5 hPa SE 8 km/h 14.5 km/h 92% 0 mm
22:18 16.8 °C 15.6 °C 1015.8 hPa SE 6.4 km/h 12.9 km/h 92% 0 mm
22:23 16.8 °C 15.4 °C 1015.8 hPa ESE 8 km/h 11.3 km/h 92% 0 mm
22:28 16.7 °C 15.6 °C 1015.8 hPa ESE 6.4 km/h 11.3 km/h 93% 0 mm
22:33 16.7 °C 15.6 °C 1015.8 hPa ESE 8 km/h 9.7 km/h 93% 0 mm
22:38 16.7 °C 15.6 °C 1015.8 hPa ESE 8 km/h 8 km/h 93% 0 mm
22:43 16.6 °C 15.5 °C 1015.8 hPa ESE 8 km/h 11.3 km/h 93% 0 mm
22:48 16.6 °C 15.4 °C 1015.8 hPa East 9.7 km/h 9.7 km/h 93% 0 mm
22:53 16.5 °C 15.4 °C 1015.8 hPa ESE 8 km/h 14.5 km/h 93% 0 mm
22:58 16.4 °C 15.3 °C 1015.8 hPa ESE 9.7 km/h 11.3 km/h 93% 0 mm
23:03 16.4 °C 15.3 °C 1015.8 hPa ESE 6.4 km/h 9.7 km/h 93% 0 mm
23:09 16.4 °C 15.3 °C 1015.8 hPa ESE 6.4 km/h 9.7 km/h 93% 0 mm
23:14 16.5 °C 15.4 °C 1015.8 hPa ESE 4.8 km/h 9.7 km/h 93% 0 mm
23:19 16.6 °C 15.4 °C 1015.8 hPa ESE 8 km/h 11.3 km/h 93% 0 mm
23:24 16.6 °C 15.4 °C 1015.8 hPa ESE 6.4 km/h 11.3 km/h 93% 0 mm
23:29 16.6 °C 15.4 °C 1015.8 hPa ESE 8 km/h 12.9 km/h 93% 0 mm
23:34 16.6 °C 15.5 °C 1015.8 hPa ESE 4.8 km/h 11.3 km/h 93% 0 mm
23:39 16.6 °C 15.5 °C 1015.8 hPa ESE 9.7 km/h 9.7 km/h 93% 0 mm
23:44 16.6 °C 15.5 °C 1015.8 hPa ESE 6.4 km/h 9.7 km/h 93% 0 mm
23:49 16.7 °C 15.6 °C 1015.8 hPa SE 4.8 km/h 8 km/h 93% 0 mm
23:54 16.7 °C 15.4 °C 1015.8 hPa SE 6.4 km/h 9.7 km/h 92% 0 mm
23:59 16.7 °C 15.4 °C 1015.8 hPa SE 4.8 km/h 9.7 km/h 92% 0 mm
Compliments of Weather Underground